Regional Weather Roundup
Issued by NWS

Home | Current Version | Previous Version | Text Only | Print | Product List | Glossary Off
Versions: 1 2 3 4 5 6 7 8 9 10 11 12 13 14 15 16 17 18 19 20 21 22 23 24 25 26 27 28 29 30 31 32 33 34 35 36 37 38 39 40 41 42 43 44 45 46 47 48 49 50

000
ASUS45 KCYS 300910
RWRWY

WYOMING REGIONAL WEATHER ROUNDUP
NATIONAL WEATHER SERVICE CHEYENNE WY
300 AM MDT THU JUL 30 2015

NOTE:  "FAIR" INDICATES FEW OR NO CLOUDS BELOW 12,000 FEET
WITH NO SIGNIFICANT WEATHER AND/OR OBSTRUCTIONS TO VISIBILITY.

WYZ001-301000-
YELLOWSTONE NATIONAL PARK

CITY           SKY/WX    TMP DP  RH WIND       PRES   REMARKS
LK YELLOWSTONE   N/A     37  33  85 NW3       30.54R
W YELLOWSTONE  NOT AVBL

$$
WYZ002>013-054>058-071-098>099-301000-
NORTHERN WYOMING

CITY           SKY/WX    TMP DP  RH WIND       PRES   REMARKS
JACKSON        FAIR      43  36  75 N7        30.45S
CODY           FAIR      61  36  39 SW5       30.34S
GREYBULL       FAIR      57  37  47 CALM      30.26R
WORLAND        FAIR      54  30  40 S8        30.28R
SHERIDAN       FAIR      49  41  74 CALM      30.27S
BUFFALO        FAIR      58  35  42 W10       30.34S
GILLETTE       FAIR      50  38  63 SW3       30.29S
HULETT         FAIR      54  37  54 S6        30.29R
NEWCASTLE      FAIR      54  37  54 CALM      30.29R

$$
WYZ014>020-022>026-101>103-301000-
CENTRAL WYOMING

CITY           SKY/WX    TMP DP  RH WIND       PRES   REMARKS
BIG PINEY      FAIR      41  31  67 W6        30.46S
PINEDALE       FAIR      39  32  75 NW7       30.46F WCI  34
DUBOIS         FAIR      45  30  57 NW8       30.46S
LANDER         FAIR      55  30  38 S5        30.34R
RIVERTON       FAIR      59  33  37 NW12      30.34S
CASPER         FAIR      49  29  46 W5        30.33R
DOUGLAS        FAIR      50  44  80 NW6       30.30S

$$
WYZ021-027>030-104>119-301000-
SOUTHERN WYOMING

CITY           SKY/WX    TMP DP  RH WIND       PRES   REMARKS
EVANSTON       FAIR      53  25  33 S7        30.45F
KEMMERER       FAIR      46  32  57 N10       30.47R
FORT BRIDGER   SUNNY     55  23  28 W6        30.47F
ROCK SPRINGS   FAIR      54  21  27 W8        30.42R
DIXON          FAIR      50  20  31 NE3       30.43S
RAWLINS        FAIR      44  15  31 N3        30.42R
SARATOGA       FAIR      45  19  36 CALM      30.44F
LARAMIE        FAIR      48  34  58 SW5       30.44R
CHEYENNE       FAIR      56  47  71 W7        30.36S
TORRINGTON     FAIR      62  49  62 SE10      30.24S
PINE BLUFFS    FAIR      55  46  71 S7        30.31S

$$


USA.gov is the U.S. government's official web portal to all federal, state and local government web resources and services.